| time (UTC) | temp C | wind direction | speed KPH | gust KPH | rain 1hr cm | rain 24hr cm | rain mn cm | humidity % | barometer mb |
| 20260508044005 | 6 | 244 | 33.8 | 54.7 | 0.00 | 0.00 | 0.00 | 90 | 1004.2 |
| 20260508043504 | 6 | 242 | 40.2 | 54.7 | 0.00 | 0.00 | 0.00 | 90 | 1004.0 |
| 20260508043005 | 6 | 235 | 29.0 | 49.9 | 0.00 | 0.00 | 0.00 | 89 | 1004.2 |
| 20260508042504 | 7 | 241 | 32.2 | 56.3 | 0.00 | 0.00 | 0.00 | 89 | 1004.0 |
| 20260508042005 | 7 | 242 | 32.2 | 56.3 | 0.00 | 0.00 | 0.00 | 89 | 1004.0 |
| 20260508041504 | 7 | 244 | 38.6 | 57.9 | 0.00 | 0.00 | 0.00 | 88 | 1004.1 |
| 20260508041005 | 7 | 248 | 27.4 | 57.9 | 0.00 | 0.00 | 0.00 | 88 | 1003.9 |
| 20260508040006 | 7 | 244 | 37.0 | 57.9 | 0.00 | 0.00 | 0.00 | 89 | 1004.0 |
| 20260508035504 | 7 | 239 | 41.8 | 57.9 | 0.00 | 0.00 | 0.00 | 89 | 1003.9 |
| 20260508035005 | 7 | 244 | 35.4 | 54.7 | 0.00 | 0.00 | 0.00 | 89 | 1004.1 |
| 20260508034005 | 7 | 254 | 33.8 | 54.7 | 0.00 | 0.00 | 0.00 | 88 | 1004.1 |
| 20260508032506 | 7 | 252 | 37.0 | 53.1 | 0.00 | 0.00 | 0.00 | 87 | 1004.1 |
| 20260508032005 | 7 | 235 | 32.2 | 53.1 | 0.00 | 0.00 | 0.00 | 87 | 1004.1 |
| 20260508031504 | 7 | 241 | 25.7 | 49.9 | 0.00 | 0.00 | 0.00 | 86 | 1004.1 |
| 20260508031006 | 7 | 233 | 30.6 | 48.3 | 0.00 | 0.00 | 0.00 | 87 | 1004.2 |
| 20260508030006 | 6 | 222 | 33.8 | 53.1 | 0.00 | 0.00 | 0.00 | 87 | 1004.2 |
| 20260508024505 | 6 | 254 | 37.0 | 54.7 | 0.00 | 0.00 | 0.00 | 87 | 1004.3 |
| 20260508023507 | 6 | 229 | 35.4 | 54.7 | 0.00 | 0.00 | 0.00 | 87 | 1004.1 |
| 20260508023005 | 6 | 240 | 27.4 | 57.9 | 0.00 | 0.00 | 0.00 | 87 | 1004.2 |
| 20260508022504 | 6 | 231 | 27.4 | 57.9 | 0.00 | 0.00 | 0.00 | 87 | 1004.1 |
| 20260508022006 | 6 | 206 | 37.0 | 53.1 | 0.00 | 0.00 | 0.00 | 88 | 1004.2 |
| 20260508021505 | 6 | 230 | 27.4 | 61.2 | 0.00 | 0.00 | 0.00 | 88 | 1004.2 |
| 20260508021005 | 6 | 252 | 33.8 | 61.2 | 0.00 | 0.00 | 0.00 | 88 | 1004.5 |
| 20260508020504 | 6 | 245 | 25.7 | 59.5 | 0.00 | 0.00 | 0.00 | 88 | 1004.4 |
| 20260508020006 | 6 | 242 | 29.0 | 59.5 | 0.00 | 0.00 | 0.00 | 88 | 1004.5 |
| 20260508015505 | 6 | 233 | 43.5 | 59.5 | 0.00 | 0.00 | 0.00 | 88 | 1004.5 |
| 20260508014504 | 6 | 248 | 25.7 | 62.8 | 0.00 | 0.00 | 0.00 | 87 | 1004.5 |
| 20260508014006 | 7 | 247 | 37.0 | 62.8 | 0.00 | 0.00 | 0.00 | 87 | 1004.5 |
| 20260508013504 | 7 | 240 | 27.4 | 51.5 | 0.00 | 0.00 | 0.00 | 86 | 1004.5 |
| 20260508013006 | 7 | 238 | 32.2 | 51.5 | 0.00 | 0.00 | 0.00 | 86 | 1004.5 |
| 20260508012006 | 7 | 246 | 32.2 | 59.5 | 0.00 | 0.00 | 0.00 | 86 | 1004.6 |
| 20260508011508 | 7 | 239 | 30.6 | 48.3 | 0.00 | 0.00 | 0.00 | 86 | 1004.8 |
| 20260508011005 | 7 | 236 | 32.2 | 51.5 | 0.00 | 0.00 | 0.00 | 85 | 1004.7 |
| 20260508010504 | 7 | 253 | 33.8 | 51.5 | 0.00 | 0.00 | 0.00 | 84 | 1004.9 |
| 20260508010006 | 6 | 262 | 17.7 | 43.5 | 0.00 | 0.00 | 0.00 | 84 | 1004.7 |
| 20260508005505 | 6 | 247 | 30.6 | 43.5 | 0.00 | 0.00 | 0.00 | 84 | 1004.7 |
| 20260508004504 | 6 | 245 | 29.0 | 54.7 | 0.00 | 0.00 | 0.00 | 83 | 1004.6 |
| 20260508002505 | 6 | 257 | 33.8 | 54.7 | 0.00 | 0.00 | 0.00 | 83 | 1004.7 |
| 20260508002006 | 6 | 252 | 33.8 | 64.4 | 0.00 | 0.00 | 0.00 | 83 | 1004.8 |
| 20260508001505 | 6 | 247 | 35.4 | 64.4 | 0.00 | 0.00 | 0.00 | 83 | 1004.6 |
| 20260508001006 | 6 | 247 | 29.0 | 57.9 | 0.00 | 0.03 | 0.00 | 83 | 1004.5 |
| 20260508000505 | 6 | 252 | 41.8 | 57.9 | 0.00 | 0.03 | 0.00 | 83 | 1004.6 |
| 20260508000006 | 6 | 250 | 25.7 | 45.1 | 0.00 | 0.03 | 0.00 | 83 | 1004.5 |
| 20260507235505 | 6 | 238 | 30.6 | 45.1 | 0.00 | 0.03 | 0.00 | 83 | 1004.8 |
| 20260507235006 | 6 | 250 | 27.4 | 54.7 | 0.00 | 0.03 | 0.00 | 83 | 1004.8 |
| 20260507233506 | 7 | 236 | 17.7 | 54.7 | 0.00 | 0.08 | 0.00 | 86 | 1005.0 |
| 20260507233006 | 7 | 231 | 33.8 | 62.8 | 0.00 | 0.08 | 0.00 | 87 | 1004.9 |
| 20260507232507 | 7 | 245 | 41.8 | 62.8 | 0.00 | 0.08 | 0.00 | 88 | 1004.8 |
| 20260507232006 | 7 | 249 | 27.4 | 51.5 | 0.00 | 0.08 | 0.00 | 88 | 1004.9 |
| 20260507231505 | 7 | 248 | 24.1 | 48.3 | 0.00 | 0.10 | 0.00 | 89 | 1004.8 |
| 20260507231006 | 7 | 238 | 32.2 | 57.9 | 0.00 | 0.15 | 0.00 | 89 | 1004.6 |
| 20260507230505 | 7 | 235 | 24.1 | 57.9 | 0.00 | 0.20 | 0.00 | 90 | 1004.6 |
| 20260507224506 | 7 | 347 | 27.4 | 54.7 | 0.00 | 0.41 | 0.00 | 91 | 1004.8 |
| 20260507224006 | 7 | 302 | 46.7 | 54.7 | 0.00 | 0.43 | 0.00 | 91 | 1004.7 |
| 20260507223505 | 7 | 244 | 33.8 | 54.7 | 0.00 | 0.46 | 0.00 | 91 | 1004.6 |
| 20260507223006 | 7 | 347 | 27.4 | 48.3 | 0.00 | 0.46 | 0.00 | 92 | 1004.6 |
| 20260507221504 | 8 | 13 | 33.8 | 51.5 | 0.00 | 0.48 | 0.00 | 93 | 1004.6 |
| 20260507221009 | 8 | 299 | 24.1 | 43.5 | 0.00 | 0.48 | 0.00 | 93 | 1004.5 |
| 20260507220504 | 8 | 332 | 24.1 | 40.2 | 0.00 | 0.53 | 0.00 | 93 | 1004.6 |
| 20260507215005 | 8 | 332 | 25.7 | 41.8 | 0.00 | 0.69 | 0.00 | 92 | 1004.3 |
| 20260507214504 | 8 | 349 | 19.3 | 54.7 | 0.00 | 0.97 | 0.00 | 92 | 1004.1 |
| 20260507214005 | 8 | 1 | 27.4 | 54.7 | 0.00 | 0.97 | 0.00 | 92 | 1004.0 |
| 20260507213504 | 8 | 342 | 27.4 | 43.5 | 0.00 | 1.02 | 0.00 | 92 | 1004.1 |
| 20260507213005 | 8 | 310 | 27.4 | 43.5 | 0.00 | 1.32 | 0.00 | 92 | 1003.8 |
| 20260507212005 | 8 | 250 | 22.5 | 43.5 | 0.00 | 1.32 | 0.00 | 92 | 1003.5 |
| 20260507211504 | 8 | 237 | 25.7 | 37.0 | 0.00 | 1.32 | 0.00 | 92 | 1003.5 |
| 20260507211006 | 8 | 233 | 24.1 | 46.7 | 0.00 | 1.32 | 0.00 | 92 | 1003.4 |
| 20260507210504 | 8 | 240 | 24.1 | 46.7 | 0.00 | 1.32 | 0.00 | 92 | 1003.5 |
| 20260507210006 | 9 | 243 | 29.0 | 48.3 | 0.00 | 1.35 | 0.00 | 92 | 1003.3 |
| 20260507205505 | 9 | 242 | 29.0 | 48.3 | 0.00 | 1.40 | 0.00 | 93 | 1003.2 |
| 20260507204504 | 9 | 242 | 30.6 | 49.9 | 0.00 | 1.40 | 0.00 | 94 | 1003.1 |
| 20260507204005 | 9 | 248 | 29.0 | 40.2 | 0.00 | 1.40 | 0.00 | 94 | 1003.3 |
| 20260507203504 | 9 | 240 | 22.5 | 48.3 | 0.00 | 1.40 | 0.00 | 94 | 1003.4 |
| 20260507203006 | 9 | 245 | 22.5 | 48.3 | 0.00 | 1.40 | 0.00 | 94 | 1003.7 |
| 20260507202504 | 9 | 238 | 29.0 | 41.8 | 0.00 | 1.40 | 0.00 | 93 | 1003.6 |
| 20260507202005 | 9 | 231 | 29.0 | 41.8 | 0.00 | 1.40 | 0.00 | 93 | 1003.8 |
| 20260507201504 | 9 | 244 | 24.1 | 40.2 | 0.00 | 1.40 | 0.00 | 93 | 1003.6 |
| 20260507201005 | 9 | 238 | 24.1 | 40.2 | 0.00 | 1.40 | 0.00 | 93 | 1004.0 |
| 20260507200504 | 9 | 217 | 27.4 | 43.5 | 0.00 | 1.40 | 0.00 | 92 | 1003.7 |
| 20260507200005 | 9 | 224 | 30.6 | 43.5 | 0.00 | 1.40 | 0.00 | 92 | 1003.9 |
| 20260507195504 | 9 | 236 | 27.4 | 38.6 | 0.00 | 1.40 | 0.00 | 91 | 1003.9 |
| 20260507195006 | 10 | 236 | 22.5 | 51.5 | 0.00 | 1.42 | 0.00 | 91 | 1003.9 |
| 20260507194505 | 10 | 244 | 24.1 | 51.5 | 0.00 | 1.42 | 0.00 | 90 | 1004.0 |
| 20260507194005 | 10 | 252 | 19.3 | 46.7 | 0.00 | 1.42 | 0.00 | 89 | 1003.9 |
| 20260507193504 | 10 | 254 | 30.6 | 46.7 | 0.00 | 1.42 | 0.00 | 89 | 1004.0 |
| 20260507193005 | 10 | 255 | 24.1 | 48.3 | 0.00 | 1.42 | 0.00 | 88 | 1003.7 |
| 20260507192504 | 10 | 249 | 29.0 | 48.3 | 0.00 | 1.42 | 0.00 | 88 | 1003.9 |
| 20260507192005 | 10 | 237 | 29.0 | 45.1 | 0.00 | 1.42 | 0.00 | 87 | 1003.6 |
| 20260507191504 | 10 | 231 | 27.4 | 45.1 | 0.00 | 1.42 | 0.00 | 87 | 1003.8 |
| 20260507191005 | 11 | 223 | 27.4 | 43.5 | 0.00 | 1.42 | 0.00 | 87 | 1003.8 |
| 20260507190504 | 11 | 230 | 29.0 | 43.5 | 0.00 | 1.42 | 0.00 | 87 | 1004.0 |
| 20260507185504 | 11 | 253 | 17.7 | 41.8 | 0.00 | 1.45 | 0.00 | 84 | 1003.7 |
| 20260507185005 | 11 | 234 | 33.8 | 41.8 | 0.00 | 1.45 | 0.00 | 84 | 1003.8 |
| 20260507184005 | 11 | 255 | 27.4 | 41.8 | 0.00 | 1.45 | 0.00 | 84 | 1003.4 |
| 20260507183504 | 11 | 246 | 19.3 | 43.5 | 0.00 | 1.45 | 0.00 | 85 | 1003.4 |
| 20260507183006 | 11 | 220 | 33.8 | 43.5 | 0.00 | 1.45 | 0.00 | 85 | 1003.2 |
| 20260507182504 | 11 | 227 | 30.6 | 49.9 | 0.00 | 1.45 | 0.00 | 86 | 1003.2 |
| 20260507182005 | 11 | 254 | 29.0 | 49.9 | 0.00 | 1.45 | 0.00 | 86 | 1003.2 |
| 20260507181504 | 11 | 259 | 17.7 | 38.6 | 0.00 | 1.45 | 0.00 | 86 | 1003.0 |
| 20260507181005 | 11 | 238 | 24.1 | 38.6 | 0.00 | 1.45 | 0.00 | 87 | 1003.1 |
| 20260507180504 | 11 | 231 | 27.4 | 43.5 | 0.00 | 1.45 | 0.00 | 87 | 1003.2 |
| 20260507180005 | 11 | 247 | 24.1 | 43.5 | 0.00 | 1.45 | 0.00 | 86 | 1003.1 |
| 20260507175504 | 11 | 244 | 24.1 | 41.8 | 0.00 | 1.45 | 0.00 | 85 | 1003.1 |
| 20260507174504 | 12 | 216 | 22.5 | 49.9 | 0.00 | 1.45 | 0.00 | 84 | 1003.1 |
| 20260507174005 | 12 | 210 | 27.4 | 49.9 | 0.00 | 1.45 | 0.00 | 85 | 1002.8 |
| 20260507173504 | 12 | 232 | 24.1 | 43.5 | 0.00 | 1.45 | 0.00 | 86 | 1002.7 |
| 20260507173005 | 11 | 233 | 27.4 | 43.5 | 0.00 | 1.47 | 0.00 | 87 | 1002.8 |
| 20260507172507 | 12 | 200 | 27.4 | 43.5 | 0.00 | 1.47 | 0.00 | 87 | 1003.1 |
| 20260507172005 | 12 | 192 | 25.7 | 41.8 | 0.00 | 1.47 | 0.00 | 87 | 1003.2 |
| 20260507171504 | 12 | 209 | 19.3 | 41.8 | 0.00 | 1.47 | 0.00 | 86 | 1003.1 |
| 20260507171005 | 12 | 222 | 19.3 | 41.8 | 0.00 | 1.47 | 0.00 | 85 | 1003.2 |
| 20260507170504 | 12 | 225 | 20.9 | 45.1 | 0.00 | 1.47 | 0.00 | 85 | 1003.1 |
| 20260507170005 | 12 | 346 | 27.4 | 48.3 | 0.00 | 1.47 | 0.00 | 86 | 1002.9 |
| 20260507165504 | 12 | 1 | 24.1 | 48.3 | 0.00 | 1.47 | 0.00 | 87 | 1002.9 |
| 20260507165005 | 12 | 178 | 37.0 | 48.3 | 0.00 | 1.47 | 0.00 | 89 | 1003.0 |
| 20260507164504 | 12 | 3 | 12.9 | 33.8 | 0.00 | 1.47 | 0.00 | 89 | 1002.9 |
| 20260507164005 | 12 | 1 | 22.5 | 41.8 | 0.00 | 1.47 | 0.00 | 89 | 1002.9 |
| 20260507163504 | 12 | 350 | 27.4 | 41.8 | 0.00 | 1.52 | 0.00 | 89 | 1002.9 |
| 20260507162005 | 12 | 338 | 35.4 | 51.5 | 0.00 | 1.52 | 0.00 | 89 | 1002.9 |
| 20260507161503 | 12 | 267 | 30.6 | 51.5 | 0.00 | 1.55 | 0.00 | 90 | 1003.0 |
| 20260507161004 | 12 | 225 | 27.4 | 46.7 | 0.00 | 1.55 | 0.00 | 90 | 1002.7 |
| 20260507160506 | 11 | 213 | 16.1 | 41.8 | 0.00 | 1.63 | 0.00 | 90 | 1002.5 |
| 20260507155507 | 12 | 1 | 30.6 | 40.2 | 0.00 | 1.63 | 0.00 | 89 | 1002.8 |
| 20260507155008 | 12 | 335 | 24.1 | 40.2 | 0.00 | 1.65 | 0.00 | 88 | 1002.9 |
| 20260507154507 | 12 | 292 | 27.4 | 37.0 | 0.00 | 1.65 | 0.00 | 87 | 1002.9 |
| 20260507153007 | 12 | 351 | 20.9 | 33.8 | 0.00 | 1.68 | 0.00 | 84 | 1002.8 |
| 20260507152506 | 13 | 210 | 17.7 | 33.8 | 0.00 | 1.68 | 0.00 | 84 | 1002.7 |
| 20260507152008 | 13 | 252 | 16.1 | 33.8 | 0.00 | 1.73 | 0.00 | 84 | 1002.6 |
| 20260507151007 | 13 | 234 | 19.3 | 33.8 | 0.00 | 1.75 | 0.00 | 85 | 1002.5 |
| 20260507150506 | 13 | 134 | 20.9 | 33.8 | 0.00 | 1.75 | 0.00 | 86 | 1002.7 |
| 20260507150007 | 12 | 169 | 22.5 | 27.4 | 0.00 | 1.75 | 0.00 | 86 | 1002.7 |
| 20260507145506 | 12 | 179 | 12.9 | 30.6 | 0.00 | 1.75 | 0.00 | 86 | 1002.7 |
| 20260507145008 | 12 | 194 | 12.9 | 30.6 | 0.00 | 1.75 | 0.00 | 86 | 1002.6 |
| 20260507143506 | 13 | 177 | 12.9 | 27.4 | 0.00 | 1.75 | 0.00 | 85 | 1002.8 |
| 20260507143007 | 13 | 174 | 12.9 | 27.4 | 0.00 | 1.75 | 0.00 | 85 | 1002.7 |
| 20260507142506 | 13 | 192 | 11.3 | 27.4 | 0.00 | 1.75 | 0.00 | 85 | 1002.4 |
| 20260507142007 | 13 | 217 | 9.7 | 27.4 | 0.00 | 1.80 | 0.00 | 83 | 1002.0 |
| 20260507141506 | 13 | 207 | 17.7 | 27.4 | 0.00 | 1.80 | 0.00 | 83 | 1002.1 |
| 20260507141007 | 13 | 352 | 17.7 | 25.7 | 0.00 | 1.80 | 0.00 | 83 | 1002.1 |
| 20260507140507 | 13 | 339 | 12.9 | 20.9 | 0.00 | 1.80 | 0.00 | 83 | 1002.1 |
| 20260507135510 | 13 | 336 | 16.1 | 20.9 | 0.00 | 1.88 | 0.00 | 82 | 1002.4 |
| 20260507134007 | 13 | 317 | 12.9 | 17.7 | 0.00 | 1.96 | 0.00 | 84 | 1002.4 |
| 20260507133506 | 13 | 339 | 11.3 | 24.1 | 0.00 | 1.98 | 0.00 | 85 | 1002.4 |
| 20260507133007 | 13 | 345 | 6.4 | 24.1 | 0.00 | 2.24 | 0.00 | 87 | 1002.4 |
| 20260507132506 | 13 | 339 | 19.3 | 27.4 | 0.00 | 2.54 | 0.00 | 91 | 1002.4 |
| 20260507132007 | 13 | 353 | 17.7 | 29.0 | 0.00 | 2.57 | 0.00 | 93 | 1002.4 |
| 20260507131506 | 12 | 353 | 14.5 | 29.0 | 0.00 | 2.67 | 0.00 | 95 | 1002.5 |
| 20260507131007 | 12 | 325 | 12.9 | 27.4 | 0.00 | 2.79 | 0.00 | 96 | 1002.5 |
| 20260507130506 | 12 | 299 | 16.1 | 27.4 | 0.00 | 2.90 | 0.00 | 97 | 1002.8 |
| 20260507130007 | 12 | 311 | 6.4 | 19.3 | 0.00 | 2.97 | 0.00 | 97 | 1002.6 |
| 20260507125506 | 12 | 342 | 4.8 | 14.5 | 0.00 | 3.10 | 0.00 | 97 | 1002.6 |
| 20260507125007 | 11 | 332 | 4.8 | 17.7 | 0.00 | 3.12 | 0.00 | 97 | 1002.4 |
| 20260507124506 | 11 | 309 | 9.7 | 17.7 | 0.00 | 3.12 | 0.00 | 97 | 1003.0 |
| 20260507124007 | 11 | 321 | 8.0 | 16.1 | 0.00 | 3.12 | 0.00 | 98 | 1002.7 |
| 20260507122506 | 11 | 325 | 8.0 | 14.5 | 0.00 | 3.17 | 0.00 | 98 | 1002.7 |
| 20260507122007 | 10 | 311 | 6.4 | 14.5 | 0.00 | 3.17 | 0.00 | 98 | 1002.6 |
| 20260507121506 | 10 | 311 | 6.4 | 11.3 | 0.00 | 3.20 | 0.00 | 98 | 1002.5 |
| 20260507121007 | 10 | 301 | 6.4 | 8.0 | 0.00 | 3.23 | 0.00 | 98 | 1002.6 |
| 20260507120506 | 10 | 338 | 3.2 | 6.4 | 0.00 | 3.23 | 0.00 | 98 | 1002.6 |
| 20260507120007 | 10 | 339 | 3.2 | 6.4 | 0.00 | 3.23 | 0.00 | 98 | 1002.7 |
| 20260507115507 | 10 | 328 | 3.2 | 6.4 | 0.00 | 3.23 | 0.00 | 99 | 1002.6 |
| 20260507114506 | 10 | 224 | 0.0 | 6.4 | 0.00 | 3.23 | 0.00 | 99 | 1002.6 |
| 20260507114007 | 10 | 240 | 3.2 | 9.7 | 0.00 | 3.23 | 0.00 | 99 | 1002.7 |
| 20260507113007 | 10 | 185 | 4.8 | 11.3 | 0.00 | 3.23 | 0.00 | 99 | 1002.8 |
| 20260507112007 | 10 | 1 | 8.0 | 11.3 | 0.00 | 3.23 | 0.00 | 99 | 1003.1 |
| 20260507111507 | 10 | 1 | 3.2 | 4.8 | 0.00 | 3.23 | 0.00 | 99 | 1003.0 |
| 20260507110506 | 10 | 0 | 0.0 | 0.0 | 0.00 | 3.23 | 0.00 | 99 | 1003.5 |
| 20260507110007 | 10 | 170 | 0.0 | 6.4 | 0.00 | 3.23 | 0.00 | 99 | 1003.3 |
| 20260507105506 | 10 | 166 | 0.0 | 8.0 | 0.00 | 3.23 | 0.00 | 99 | 1003.1 |
| 20260507105007 | 10 | 171 | 3.2 | 8.0 | 0.00 | 3.33 | 0.00 | 99 | 1003.3 |
| 20260507104506 | 10 | 169 | 3.2 | 8.0 | 0.00 | 3.33 | 0.00 | 99 | 1003.1 |
| 20260507104007 | 10 | 157 | 3.2 | 11.3 | 0.00 | 3.38 | 0.00 | 98 | 1003.1 |
| 20260507103506 | 10 | 162 | 6.4 | 11.3 | 0.00 | 3.38 | 0.00 | 98 | 1003.5 |
| 20260507103007 | 10 | 179 | 3.2 | 8.0 | 0.00 | 3.38 | 0.00 | 98 | 1003.7 |
| 20260507102506 | 10 | 181 | 3.2 | 8.0 | 0.00 | 3.38 | 0.00 | 98 | 1003.7 |
| 20260507102007 | 10 | 179 | 3.2 | 8.0 | 0.00 | 3.38 | 0.00 | 98 | 1003.8 |
| 20260507101507 | 10 | 155 | 3.2 | 17.7 | 0.00 | 3.38 | 0.00 | 98 | 1004.0 |
| 20260507101007 | 10 | 194 | 4.8 | 17.7 | 0.00 | 3.38 | 0.00 | 98 | 1004.3 |
| 20260507100506 | 10 | 254 | 3.2 | 9.7 | 0.00 | 3.38 | 0.00 | 98 | 1004.2 |
| 20260507100007 | 10 | 217 | 6.4 | 8.0 | 0.00 | 3.38 | 0.00 | 98 | 1004.2 |
| 20260507095506 | 10 | 269 | 3.2 | 8.0 | 0.00 | 3.38 | 0.00 | 98 | 1004.3 |
| 20260507095007 | 10 | 270 | 4.8 | 8.0 | 0.00 | 3.38 | 0.00 | 98 | 1003.9 |
| 20260507094007 | 10 | 187 | 3.2 | 4.8 | 0.00 | 3.38 | 0.00 | 98 | 1004.3 |
| 20260507093506 | 10 | 142 | 0.0 | 6.4 | 0.00 | 3.38 | 0.00 | 98 | 1004.2 |
| 20260507092008 | 11 | 145 | 3.2 | 17.7 | 0.00 | 3.38 | 0.00 | 98 | 1004.3 |
| 20260507091505 | 11 | 139 | 6.4 | 17.7 | 0.00 | 3.38 | 0.00 | 98 | 1004.2 |
| 20260507091007 | 11 | 147 | 12.9 | 17.7 | 0.00 | 3.38 | 0.00 | 98 | 1004.4 |
| 20260507090505 | 11 | 287 | 0.0 | 6.4 | 0.00 | 3.38 | 0.00 | 97 | 1004.0 |
| 20260507085505 | 11 | 279 | 3.2 | 8.0 | 0.00 | 3.38 | 0.00 | 98 | 1003.8 |
| 20260507084506 | 11 | 281 | 3.2 | 6.4 | 0.00 | 3.38 | 0.00 | 97 | 1003.8 |
| 20260507084007 | 11 | 272 | 3.2 | 6.4 | 0.00 | 3.38 | 0.00 | 97 | 1003.9 |
| 20260507083506 | 11 | 273 | 1.6 | 6.4 | 0.00 | 3.38 | 0.00 | 97 | 1003.9 |
| 20260507083006 | 11 | 274 | 4.8 | 6.4 | 0.00 | 3.38 | 0.00 | 97 | 1004.0 |
| 20260507082506 | 11 | 272 | 3.2 | 6.4 | 0.00 | 3.38 | 0.00 | 97 | 1003.8 |
| 20260507082007 | 11 | 270 | 3.2 | 6.4 | 0.00 | 3.38 | 0.00 | 97 | 1003.6 |
| 20260507081505 | 11 | 220 | 3.2 | 8.0 | 0.00 | 3.38 | 0.00 | 96 | 1003.8 |
| 20260507081006 | 11 | 176 | 3.2 | 8.0 | 0.00 | 3.38 | 0.00 | 96 | 1004.0 |
| 20260507080505 | 11 | 212 | 3.2 | 6.4 | 0.00 | 3.38 | 0.00 | 96 | 1004.0 |
| 20260507080007 | 11 | 270 | 0.0 | 3.2 | 0.00 | 3.38 | 0.00 | 96 | 1003.9 |
| 20260507075505 | 11 | 270 | 0.0 | 4.8 | 0.00 | 3.38 | 0.00 | 96 | 1004.2 |
| 20260507075007 | 11 | 270 | 0.0 | 6.4 | 0.00 | 3.38 | 0.00 | 96 | 1004.0 |
| 20260507074505 | 11 | 273 | 3.2 | 6.4 | 0.00 | 3.38 | 0.00 | 96 | 1004.3 |
| 20260507074006 | 11 | 299 | 4.8 | 6.4 | 0.00 | 3.38 | 0.00 | 96 | 1004.6 |
| 20260507073505 | 11 | 300 | 6.4 | 6.4 | 0.00 | 3.38 | 0.00 | 96 | 1004.5 |
| 20260507073006 | 11 | 286 | 3.2 | 8.0 | 0.00 | 3.38 | 0.00 | 96 | 1004.3 |
| 20260507072505 | 11 | 328 | 3.2 | 9.7 | 0.00 | 3.38 | 0.00 | 95 | 1004.4 |
| 20260507072006 | 11 | 351 | 3.2 | 9.7 | 0.00 | 3.38 | 0.00 | 95 | 1004.3 |
| 20260507071505 | 11 | 1 | 4.8 | 8.0 | 0.00 | 3.38 | 0.00 | 95 | 1004.3 |
| 20260507071006 | 11 | 319 | 3.2 | 6.4 | 0.00 | 3.38 | 0.00 | 95 | 1004.1 |
| 20260507070505 | 11 | 271 | 3.2 | 6.4 | 0.00 | 3.38 | 0.00 | 95 | 1004.4 |
| 20260507070010 | 11 | 270 | 4.8 | 6.4 | 0.00 | 3.38 | 0.00 | 95 | 1004.7 |
| 20260507065505 | 11 | 274 | 3.2 | 4.8 | 0.00 | 3.38 | 0.00 | 96 | 1004.6 |
| 20260507065006 | 11 | 317 | 1.6 | 6.4 | 0.00 | 3.38 | 0.00 | 96 | 1004.4 |
| 20260507064505 | 11 | 350 | 3.2 | 12.9 | 0.00 | 3.38 | 0.00 | 97 | 1004.2 |
| 20260507063505 | 11 | 350 | 6.4 | 12.9 | 0.00 | 3.38 | 0.00 | 97 | 1003.7 |
| 20260507063006 | 11 | 343 | 4.8 | 16.1 | 0.00 | 3.38 | 0.00 | 97 | 1003.6 |
| 20260507062505 | 11 | 354 | 8.0 | 17.7 | 0.00 | 3.38 | 0.00 | 97 | 1003.6 |
| 20260507062006 | 11 | 1 | 11.3 | 20.9 | 0.00 | 3.38 | 0.00 | 97 | 1003.3 |
| 20260507061505 | 11 | 331 | 11.3 | 24.1 | 0.00 | 3.38 | 0.00 | 97 | 1003.2 |
| 20260507061006 | 11 | 333 | 14.5 | 24.1 | 0.00 | 3.38 | 0.00 | 97 | 1003.2 |
| 20260507060506 | 11 | 1 | 12.9 | 22.5 | 0.00 | 3.38 | 0.00 | 97 | 1003.1 |
| 20260507060006 | 11 | 350 | 11.3 | 22.5 | 0.00 | 3.38 | 0.00 | 97 | 1003.1 |
| 20260507055006 | 11 | 350 | 8.0 | 17.7 | 0.00 | 3.38 | 0.00 | 97 | 1003.6 |
| 20260507054505 | 11 | 341 | 8.0 | 17.7 | 0.00 | 3.38 | 0.00 | 97 | 1003.8 |
| 20260507054006 | 11 | 354 | 11.3 | 17.7 | 0.00 | 3.38 | 0.00 | 97 | 1003.5 |
| 20260507053505 | 11 | 349 | 9.7 | 20.9 | 0.00 | 3.38 | 0.00 | 97 | 1003.8 |
| 20260507053006 | 11 | 338 | 12.9 | 20.9 | 0.00 | 3.38 | 0.00 | 98 | 1003.6 |
| 20260507052505 | 11 | 351 | 14.5 | 20.9 | 0.00 | 3.38 | 0.00 | 98 | 1004.5 |
| 20260507052006 | 11 | 1 | 8.0 | 14.5 | 0.00 | 3.38 | 0.00 | 98 | 1004.7 |
| 20260507051505 | 11 | 356 | 8.0 | 14.5 | 0.00 | 3.38 | 0.00 | 98 | 1004.6 |
| 20260507051006 | 11 | 341 | 8.0 | 12.9 | 0.00 | 3.38 | 0.00 | 98 | 1004.9 |
| 20260507050505 | 11 | 350 | 8.0 | 12.9 | 0.00 | 3.38 | 0.00 | 98 | 1005.3 |
| 20260507050006 | 11 | 1 | 6.4 | 12.9 | 0.00 | 3.38 | 0.00 | 98 | 1005.1 |
| 20260507045505 | 11 | 322 | 4.8 | 9.7 | 0.00 | 3.38 | 0.00 | 98 | 1005.1 |
| 20260507045006 | 11 | 290 | 6.4 | 9.7 | 0.00 | 3.38 | 0.00 | 98 | 1005.2 |